Weather History for Valentine, NE

Change the Weather History Date:

Friday, October 7, 2011

  Actual Average Record
Temperature  
Mean Temperature 59 °F 52 °F  
Max Temperature 74 °F 67 °F 92 °F (1956)
Min Temperature 44 °F 37 °F 15 °F (1952)
Degree Days  
Heating Degree Days 6 13  
Month to date heating degree days 6 84  
Since 1 July heating degree days 190 269  
Cooling Degree Days 0 0  
Month to date cooling degree days 21 1  
Year to date cooling degree days 912 818  
Growing Degree Days 10 (Base 50)    
Moisture  
Dew Point 34 °F    
Average Humidity 53    
Maximum Humidity 93    
Minimum Humidity 12    
Precipitation  
Precipitation 0.02 in 0.04 in 1.30 in (1946)
Month to date precipitation 0.77 0.36  
Year to date precipitation 20.41 18.11  
Snow  
Snow 0.00 in 0.00 in 2.80 in (1970)
Month to date snowfall 0.0 0.2  
Since 1 July snowfall 0.0 0.9  
Since 1 September snowfall 0.0 0.9  
Snow Depth 0.00 in    
Sea Level Pressure  
Sea Level Pressure 29.72 in    
Wind  
Wind Speed 12 mph (SW)    
Max Wind Speed 35 mph    
Max Gust Speed 43 mph    
Visibility 10 miles    
Events Rain    
T = Trace of Precipitation, MM = Missing Value Source: NWS Daily Summary

Daily Weather History Graph

Daily Weather History Graph

Search for Another Location

Airport:

Trip Planner

Search our weather history database for the weather conditions in past years. The results will help you decide how hot, cold, wet, or windy it might be!

Date:

Astronomy

Oct. 07, 2011 Rise Set
Actual Time 7:45 AM CDT 7:13 PM CDT
Civil Twilight 7:17 AM CDT 7:41 PM CDT
Nautical Twilight 6:44 AM CDT 8:14 PM CDT
Astronomical Twilight 6:11 AM CDT 8:47 PM CDT
Moon 5:01 PM CDT (10/7) 3:31 AM CDT (10/7)
Length of Visible Light 12h 24m
Length of Day
11h 27m
Waxing Gibbous, 83% of the Moon is Illuminated
Oct 7
Waxing Gibbous
Oct 11
Full
Oct 19
Last Quarter
Oct 26
New
Nov 2
First Quarter

Hourly Weather History & Observations

Time (CDT) Temp. Windchill Dew Point Humidity Pressure Visibility Wind Dir Wind Speed Gust Speed Precip Events Conditions
12:52 AM 57.9 °F - 54.0 °F 87% 29.62 in 10.0 mi SSW 6.9 mph - 0.00 in Rain Light Rain
1:52 AM 55.9 °F - 53.1 °F 90% 29.61 in 10.0 mi SSE 5.8 mph - 0.02 in   Mostly Cloudy
2:52 AM 55.0 °F - 53.1 °F 93% 29.63 in 10.0 mi ESE 5.8 mph - N/A   Clear
3:52 AM 54.0 °F - 52.0 °F 93% 29.63 in 10.0 mi SW 3.5 mph - N/A   Mostly Cloudy
4:52 AM 53.1 °F - 51.1 °F 93% 29.64 in 10.0 mi South 4.6 mph - N/A   Mostly Cloudy
5:52 AM 51.1 °F - 48.9 °F 92% 29.65 in 10.0 mi SW 8.1 mph - N/A   Scattered Clouds
6:52 AM 51.8 °F - 44.6 °F 76% 29.69 in 10.0 mi SSW 8.1 mph - N/A   Mostly Cloudy
7:52 AM 48.9 °F - 41.0 °F 74% 29.67 in 10.0 mi SSW 8.1 mph - N/A   Clear
8:52 AM 50.0 °F - 41.0 °F 71% 29.68 in 10.0 mi SSW 9.2 mph - N/A   Clear
9:52 AM 55.0 °F - 39.0 °F 55% 29.70 in 10.0 mi SW 12.7 mph - N/A   Clear
10:52 AM 63.0 °F - 27.0 °F 26% 29.71 in 10.0 mi SW 25.3 mph 38.0 mph N/A   Clear
11:52 AM 66.2 °F - 24.8 °F 21% 29.73 in 10.0 mi SW 24.2 mph 33.4 mph N/A   Clear
12:52 PM 69.1 °F - 21.0 °F 16% 29.70 in 10.0 mi SW 28.8 mph 40.3 mph N/A   Clear
1:52 PM 71.1 °F - 19.0 °F 14% 29.70 in 10.0 mi SSW 31.1 mph 40.3 mph N/A   Clear
2:52 PM 73.0 °F - 18.0 °F 12% 29.70 in 10.0 mi SW 26.5 mph 33.4 mph N/A   Clear
3:52 PM 73.0 °F - 21.0 °F 14% 29.71 in 10.0 mi SSW 24.2 mph 35.7 mph N/A   Clear
4:52 PM 73.9 °F - 18.0 °F 12% 29.72 in 10.0 mi SSW 18.4 mph 33.4 mph N/A   Clear
5:52 PM 73.0 °F - 19.0 °F 13% 29.74 in 10.0 mi SW 16.1 mph 25.3 mph N/A   Clear
6:52 PM 68.0 °F - 21.9 °F 17% 29.74 in 10.0 mi WSW 8.1 mph - N/A   Clear
7:52 PM 55.9 °F - 28.9 °F 36% 29.78 in 10.0 mi WSW 5.8 mph - N/A   Clear
8:52 PM 55.9 °F - 28.0 °F 34% 29.82 in 10.0 mi Calm Calm - N/A   Clear
9:52 PM 51.1 °F - 35.1 °F 54% 29.86 in 10.0 mi Calm Calm - N/A   Clear
10:52 PM 46.9 °F - 32.0 °F 56% 29.87 in 10.0 mi NW 4.6 mph - N/A   Clear
11:52 PM 44.1 °F 40.8 °F 34.0 °F 68% 29.88 in 10.0 mi West 5.8 mph - N/A   Scattered Clouds